Location: アルンシュタイン
(50.0000°N, 10.0000°E)
Time: 19:42:33
(UTC+02:00)

Transit 2A - All Passes

Search period start: 11 September 2024 00:00
Search period end: 21 September 2024 00:00
Orbit: 590 x 961 km, 66.7° (Epoch: 10 September)

Date Brightness Start Highest point End Pass type
(mag) Time Alt. Az. Time Alt. Az. Time Alt. Az.
11 Sep - 00:41:13 10° NW 00:45:29 18° N 00:49:47 10° NNE visible
11 Sep - 02:26:36 10° NNW 02:31:06 20° NNE 02:35:32 10° ENE visible
11 Sep - 04:10:03 10° NNW 04:16:02 41° NE 04:21:45 10° ESE visible
11 Sep - 05:53:21 10° NW 05:59:32 57° WSW 06:05:18 10° SSE visible
11 Sep - 07:39:50 10° W 07:41:19 11° W 07:42:47 10° WSW daylight
11 Sep - 20:35:36 10° SSW 20:41:20 53° ESE 20:47:27 10° NE visible
11 Sep - 22:18:57 10° WSW 22:24:44 43° NW 22:30:48 10° NNE visible
12 Sep - 00:05:05 10° WNW 00:09:37 20° NNW 00:14:11 10° NNE visible
12 Sep - 01:50:58 10° NNW 01:55:13 18° N 01:59:27 10° NE visible
12 Sep - 03:34:39 10° NNW 03:40:22 33° NE 03:45:53 10° E visible
12 Sep - 05:17:52 10° NW 05:24:12 76° WSW 05:30:06 10° SSE visible
12 Sep - 07:02:43 10° WNW 07:06:19 16° WSW 07:09:48 10° SW daylight
12 Sep - 20:00:39 10° S 20:06:06 39° ESE 20:11:52 10° NE visible
12 Sep - 21:43:13 10° WSW 21:49:09 55° NW 21:55:25 10° NNE visible
12 Sep - 23:28:58 10° WNW 23:33:46 22° NNW 23:38:39 10° NNE visible
13 Sep - 01:15:13 10° NW 01:19:19 17° N 01:23:23 10° NE visible
13 Sep - 02:59:14 10° NNW 03:04:39 28° NNE 03:09:53 10° E visible
13 Sep - 04:42:24 10° NW 04:48:47 82° NE 04:54:45 10° SE visible
13 Sep - 06:26:34 10° WNW 06:31:15 23° WSW 06:35:43 10° SSW daylight
13 Sep - 19:25:57 10° SSE 19:30:55 28° ESE 19:36:09 10° NE daylight
13 Sep - 21:07:36 10° SW 21:13:38 70° NW 21:20:00 10° NE visible
13 Sep - 22:52:51 10° W 22:57:57 26° NNW 23:03:11 10° NNE visible
14 Sep - 00:39:20 10° NW 00:43:23 17° N 00:47:26 10° NE visible
14 Sep - 02:23:47 10° NNW 02:28:52 24° NNE 02:33:49 10° ENE visible
14 Sep - 04:06:59 10° NNW 04:13:19 64° NE 04:19:14 10° SE visible
14 Sep - 05:50:43 10° NW 05:56:08 31° WSW 06:01:12 10° S visible
14 Sep - 18:51:32 10° SSE 18:55:48 21° ESE 19:00:14 10° ENE daylight
14 Sep - 20:32:08 10° SW 20:38:10 90° WSW 20:44:34 10° NE visible
14 Sep - 22:16:48 10° W 22:22:12 30° NNW 22:27:45 10° NNE visible
15 Sep - 00:03:20 10° NW 00:07:28 18° N 00:11:36 10° NE visible
15 Sep - 01:48:17 10° NNW 01:53:02 21° NNE 01:57:42 10° ENE visible
15 Sep - 03:31:35 10° NNW 03:37:45 50° NE 03:43:34 10° ESE visible
15 Sep - 05:15:03 10° NW 05:20:55 43° WSW 05:26:24 10° S visible
15 Sep - 18:17:40 10° SE 18:20:45 14° E 18:23:54 10° ENE daylight
15 Sep - 19:56:49 10° SSW 20:02:46 69° ESE 20:09:05 10° NE visible
15 Sep - 21:40:50 10° WSW 21:46:28 36° NW 21:52:19 10° NNE visible
15 Sep - 23:27:14 10° NW 23:31:33 19° NNW 23:35:53 10° NNE visible
16 Sep - 01:12:43 10° NNW 01:17:10 19° NNE 01:21:34 10° ENE visible
16 Sep - 02:56:10 10° NNW 03:02:08 40° NE 03:07:47 10° ESE visible
16 Sep - 04:39:28 10° NW 04:45:38 59° WSW 04:51:23 10° SSE visible
16 Sep - 06:25:44 10° W 06:27:27 11° W 06:29:09 10° WSW visible
16 Sep - 19:21:41 10° S 19:27:27 51° ESE 19:33:34 10° NE daylight
16 Sep - 21:04:58 10° WSW 21:10:49 44° NW 21:16:55 10° NNE visible
16 Sep - 22:51:06 10° WNW 22:55:39 20° NNW 23:00:16 10° NNE visible
17 Sep - 00:37:02 10° NNW 00:41:16 18° N 00:45:26 10° NE visible
17 Sep - 02:20:45 10° NNW 02:26:26 33° NNE 02:31:52 10° E visible
17 Sep - 04:03:58 10° NW 04:10:17 78° WSW 04:16:09 10° SSE visible
17 Sep - 05:48:44 10° WNW 05:52:26 17° WSW 05:55:59 10° SW visible
17 Sep - 18:46:44 10° S 18:52:11 38° ESE 18:57:57 10° NE daylight
17 Sep - 20:29:13 10° SW 20:35:13 56° NW 20:41:30 10° NNE visible
17 Sep - 22:14:56 10° WNW 22:19:48 23° NNW 22:24:43 10° NNE visible
18 Sep - 00:01:14 10° NW 00:05:20 17° N 00:09:23 10° NE visible
18 Sep - 01:45:19 10° NNW 01:50:41 28° NNE 01:55:51 10° E visible
18 Sep - 03:28:30 10° NW 03:34:51 80° NE 03:40:46 10° SE visible
18 Sep - 05:12:37 10° WNW 05:17:21 23° WSW 05:21:50 10° SSW visible
18 Sep - 18:12:02 10° SSE 18:17:00 28° ESE 18:22:12 10° NE daylight
18 Sep - 19:53:36 10° SW 19:59:41 72° NW 20:06:05 10° NE visible
18 Sep - 21:38:49 10° W 21:43:58 26° NNW 21:49:14 10° NNE visible
18 Sep - 23:25:19 10° NW 23:29:24 17° N 23:33:26 10° NE visible
19 Sep - 01:09:51 10° NNW 01:14:53 24° NNE 01:19:46 10° ENE visible
19 Sep - 02:53:03 10° NNW 02:59:20 62° NE 03:05:13 10° SE visible
19 Sep - 04:36:47 10° NW 04:42:11 32° WSW 04:47:16 10° S visible
19 Sep - 17:37:39 10° SSE 17:41:51 20° ESE 17:46:14 10° ENE daylight
19 Sep - 19:18:08 10° SSW 19:24:13 88° ESE 19:30:37 10° NE daylight
19 Sep - 21:02:45 10° W 21:08:12 31° NNW 21:13:46 10° NNE visible
19 Sep - 22:49:17 10° NW 22:53:27 18° N 22:57:35 10° NE visible
20 Sep - 00:34:19 10° NNW 00:39:01 21° NNE 00:43:37 10° ENE visible
20 Sep - 02:17:37 10° NNW 02:23:46 48° NE 02:29:31 10° ESE visible
20 Sep - 04:01:05 10° NW 04:06:58 44° WSW 04:12:25 10° S visible
20 Sep - 17:03:50 10° SE 17:06:47 14° E 17:09:50 10° ENE daylight
20 Sep - 18:42:49 10° SSW 18:48:48 67° ESE 18:55:08 10° NE daylight
20 Sep - 20:26:46 10° WSW 20:32:28 37° NW 20:38:21 10° NNE visible
20 Sep - 22:13:10 10° NW 22:17:31 19° NNW 22:21:52 10° NNE visible
